This is the latest recevied weather packets stored in our database for station/object KA1JKB. If no packets are shown the sender has not sent any weather packets the latest 10 day(s).
| Time | Temp. | Humidity | Pressure | Rain* | Wind** | Luminosity | Snow |
|---|---|---|---|---|---|---|---|
| 1777898473 | 12.78° C | 75% | 1002.7 hPa | 0 mm | - | 324 W/m² | - |
| 1777898170 | 12.78° C | 76% | 1002.7 hPa | 0 mm | - | 308 W/m² | - |
| 1777897867 | 12.22° C | 76% | 1002.5 hPa | 0 mm | - | 267 W/m² | - |
| 1777897563 | 11.67° C | 77% | 1002.7 hPa | 0 mm | - | 239 W/m² | - |
| 1777897259 | 11.67° C | 78% | 1002.7 hPa | 0 mm | - | 218 W/m² | - |
| 1777896955 | 11.67° C | 79% | 1002.6 hPa | 0 mm | - | 191 W/m² | - |
| 1777896652 | 11.11° C | 79% | 1002.6 hPa | 0 mm | - | 177 W/m² | - |
| 1777896349 | 10.56° C | 80% | 1002.7 hPa | 0 mm | - | 145 W/m² | - |
| 1777896047 | 10.56° C | 81% | 1002.6 hPa | 0 mm | - | 116 W/m² | - |
| 1777895745 | 10° C | 82% | 1002.8 hPa | 0 mm | - | 113 W/m² | - |
| 1777895442 | 10° C | 83% | 1002.8 hPa | 0 mm | - | 98 W/m² | - |
| 1777895140 | 9.44° C | 84% | 1002.7 hPa | 0 mm | - | 64 W/m² | - |
| 1777894837 | 9.44° C | 85% | 1002.6 hPa | 0 mm | - | 57 W/m² | - |
| 1777894533 | 8.89° C | 86% | 1002.8 hPa | 0 mm | - | 52 W/m² | - |
| 1777894232 | 8.89° C | 87% | 1002.5 hPa | 0 mm | - | 48 W/m² | - |
| 1777893927 | 8.33° C | 88% | 1002.5 hPa | 0 mm | - | 44 W/m² | - |
| 1777893624 | 7.78° C | 89% | 1002.5 hPa | 0 mm | - | 39 W/m² | - |
| 1777893321 | 7.78° C | 89% | 1002.7 hPa | 0 mm | - | 35 W/m² | - |
| 1777893017 | 7.78° C | 90% | 1002.6 hPa | 0 mm | - | 29 W/m² | - |
| 1777892714 | 7.22° C | 90% | 1002.4 hPa | 0 mm | - | 26 W/m² | - |
| 1777892410 | 7.22° C | 90% | 1002.5 hPa | 0 mm | - | 23 W/m² | - |
| 1777892106 | 7.22° C | 91% | 1002.6 hPa | 0 mm | - | 21 W/m² | - |
| 1777891803 | 7.22° C | 91% | 1002.5 hPa | 0 mm | - | 17 W/m² | - |
| 1777891500 | 6.67° C | 91% | 1002.6 hPa | 0 mm | - | 13 W/m² | - |
| 1777891196 | 6.67° C | 91% | 1002.7 hPa | 0 mm | - | 9 W/m² | - |
* Rain latest hour (hover to see other rain measurements)
** Current wind speed in m/s (hover to see current wind gust speed)